DW9142 Weather Reports


time (UTC)temp
F
wind
direction
speed
knots
gust
knots
rain 1hr
in
rain 24hr
in
rain mn
in
humidity
%
barometer
mb
20260506201556 66 0.0 0.0 0.00 0.06 0.00 79 1006.4
20260506200038 65 0.0 0.0 0.00 0.06 0.00 80 1006.7
20260506194528 65 0.0 0.0 0.00 0.06 0.00 80 1006.9
20260506193005 65 0.0 0.0 0.00 0.06 0.00 80 1007.2
20260506191502 65 0.0 0.0 0.00 0.06 0.00 80 1007.2
20260506190042 65 0.0 0.0 0.00 0.06 0.00 79 1007.4
20260506184544 65 0.0 0.0 0.00 0.06 0.00 79 1007.3
20260506183014 64 0.0 0.0 0.00 0.06 0.00 80 1007.4
20260506181509 64 0.0 0.0 0.00 0.06 0.06 81 1007.5
20260506180049 64 0.0 0.0 0.00 0.06 0.06 82 1007.7
20260506174544 65 0.0 0.0 0.00 0.06 0.06 81 1007.9
20260506173030 65 0.0 0.0 0.01 0.06 0.06 83 1007.8
20260506171519 65 0.0 0.0 0.02 0.06 0.06 87 1007.5
20260506170056 64 0.0 0.0 0.03 0.06 0.06 88 1007.7
20260506164559 64 0.0 0.0 0.05 0.06 0.06 88 1007.9
20260506163039 64 0.0 0.0 0.05 0.05 0.05 86 1008.6
20260506161532 64 0.0 0.0 0.04 0.04 0.04 84 1009.1
20260506160027 64 0.0 0.0 0.02 0.02 0.02 82 1009.2
20260506154523 65 0.0 0.0 0.01 0.01 0.01 77 1009.4
20260506153017 67 0.0 0.0 0.00 0.00 0.00 69 1009.1
20260506151514 68 0.0 0.0 0.00 0.00 0.00 67 1009.0
20260506150010 68 0.0 0.0 0.00 0.00 0.00 67 1009.1
20260506144505 68 0.0 0.0 0.00 0.00 0.00 65 1009.2
20260506143045 69 0.0 0.0 0.00 0.00 0.00 65 1009.2
20260506141540 69 0.0 0.0 0.00 0.00 0.00 66 1009.3
20260506140018 68 0.0 0.0 0.00 0.00 0.00 67 1009.2
20260506134514 68 0.0 0.0 0.00 0.00 0.00 67 1009.2
20260506133052 68 0.0 0.0 0.00 0.00 0.00 67 1009.3
20260506131553 68 0.0 0.0 0.00 0.00 0.00 68 1009.4
20260506130026 67 0.0 0.0 0.00 0.00 0.00 69 1009.3
20260506124522 67 0.0 0.0 0.00 0.00 0.00 68 1009.3
20260506123001 66 0.0 0.0 0.00 0.00 0.00 71 1009.1
20260506121557 65 0.0 0.0 0.00 0.00 0.00 72 1009.3
20260506120036 65 0.0 0.0 0.00 0.00 0.00 72 1009.3
20260506114534 65 0.0 0.0 0.00 0.00 0.00 72 1009.5
20260506113010 65 0.0 0.0 0.00 0.00 0.00 73 1009.7
20260506111505 65 0.0 0.0 0.00 0.00 0.00 74 1009.4
20260506110053 64 0.0 0.0 0.00 0.00 0.00 75 1009.4
20260506104548 64 0.0 0.0 0.00 0.00 0.00 76 1009.4
20260506103020 63 0.0 0.0 0.00 0.00 0.00 77 1009.2
20260506101522 63 0.0 0.0 0.00 0.00 0.00 77 1009.3
20260506100121 63 0.0 0.0 0.00 0.00 0.00 77 1009.2
20260506094550 63 0.0 0.0 0.00 0.00 0.00 77 1009.1
20260506093048 63 0.0 0.0 0.00 0.00 0.00 77 1009.1
20260506091522 63 0.0 0.0 0.00 0.00 0.00 78 1009.2
20260506090018 63 0.0 0.0 0.00 0.00 0.00 78 1009.3
20260506084622 63 0.0 0.0 0.00 0.00 0.00 78 1009.3
20260506083054 63 0.0 0.0 0.00 0.00 0.00 78 1009.4
20260506081539 64 0.0 0.0 0.00 0.00 0.00 77 1009.4
20260506073001 65 0.0 0.0 0.00 0.00 0.00 75 1009.5
20260506071539 65 0.0 0.0 0.00 0.00 0.00 75 1009.5
20260506061548 66 0.0 0.0 0.00 0.00 0.00 72 1009.7
20260506044608 67 0.0 0.0 0.00 0.00 0.00 67 1010.3
20260506043028 68 0.0 0.0 0.00 0.00 0.00 66 1010.2
20260506041505 68 0.0 0.0 0.00 0.00 0.00 65 1010.3
20260506040001 68 0.0 0.0 0.00 0.00 0.00 64 1010.1
20260506034605 68 0.0 0.0 0.00 0.00 0.00 64 1010.1
20260506033037 68 0.0 0.0 0.00 0.00 0.00 63 1010.0
20260506031516 69 0.0 0.0 0.00 0.00 0.00 62 1010.1
20260506030010 69 0.0 0.0 0.00 0.00 0.00 61 1010.1
20260506024549 69 0.0 0.0 0.00 0.00 0.00 60 1010.1
20260506023103 70 0.0 0.0 0.00 0.00 0.00 59 1010.2
20260506021523 70 0.0 0.0 0.00 0.00 0.00 58 1010.1
20260506020018 70 0.0 0.0 0.00 0.00 0.00 58 1010.1
20260506014558 70 0.0 0.0 0.00 0.00 0.00 57 1010.1
20260506013054 71 0.0 0.0 0.00 0.00 0.00 57 1009.9
20260506011532 71 0.0 0.0 0.00 0.00 0.00 55 1009.8
20260506010027 72 0.0 0.0 0.00 0.00 0.00 54 1009.7
20260506004508 73 0.0 0.0 0.00 0.00 0.00 50 1009.5
20260506003001 75 0.0 0.0 0.00 0.00 0.00 45 1009.3
20260506001541 75 0.0 0.0 0.00 0.00 0.00 43 1009.0
20260506000036 76 0.0 0.0 0.00 0.00 0.00 41 1008.9
20260505234524 77 0.0 0.0 0.00 0.00 0.00 40 1008.7
20260505233011 77 0.0 0.0 0.00 0.00 0.00 40 1008.6
20260505231548 78 0.0 0.0 0.00 0.00 0.00 39 1008.5
20260505230045 79 0.0 0.0 0.00 0.00 0.00 37 1008.4
20260505224528 80 0.0 0.0 0.00 0.00 0.00 35 1008.2
20260505223022 80 0.0 0.0 0.00 0.00 0.00 33 1008.0
20260505221520 81 0.0 0.0 0.00 0.00 0.00 31 1008.2
20260505220023 82 0.0 0.0 0.00 0.00 0.00 30 1007.8
20260505214512 82 0.0 0.0 0.00 0.00 0.00 29 1007.8
20260505213005 83 0.0 0.0 0.00 0.00 0.00 29 1007.9
20260505211502 84 0.0 0.0 0.00 0.00 0.00 27 1007.8
20260505210056 84 0.0 0.0 0.00 0.00 0.00 26 1007.7
20260505204536 85 0.0 0.0 0.00 0.00 0.00 26 1007.5
20260505203031 86 0.0 0.0 0.00 0.00 0.00 28 1007.6